GW3840 Weather Reports


time (UTC)temp
C
wind
direction
speed
KPH
gust
KPH
rain 1hr
cm
rain 24hr
cm
rain mn
cm
humidity
%
barometer
mb
20260507110548 -2 195 0.0 0.0 0.00 0.00 0.00 91 1013.3
20260507110045 -2 195 0.0 0.0 0.00 0.00 0.00 91 1013.2
20260507105542 -2 195 0.0 0.0 0.00 0.00 0.00 91 1013.4
20260507105038 -2 195 0.0 0.0 0.00 0.00 0.00 91 1013.4
20260507104536 -1 201 0.0 0.0 0.00 0.00 0.00 90 1013.4
20260507104032 -1 201 0.0 0.0 0.00 0.00 0.00 90 1013.6
20260507103528 -1 190 0.0 0.0 0.00 0.00 0.00 88 1013.5
20260507103025 -1 201 0.0 0.0 0.00 0.00 0.00 86 1013.5
20260507102522 0 208 0.0 0.0 0.00 0.00 0.00 84 1013.5
20260507102018 0 208 0.0 0.0 0.00 0.00 0.00 84 1013.5
20260507101513 0 196 0.0 0.0 0.00 0.00 0.00 83 1013.6
20260507101010 0 184 0.0 0.0 0.00 0.00 0.00 82 1013.6
20260507100507 0 184 0.0 0.0 0.00 0.00 0.00 82 1013.4
20260507100006 0 173 1.6 1.6 0.00 0.00 0.00 83 1013.5
20260507095503 -1 194 0.0 0.0 0.00 0.00 0.00 87 1013.4
20260507094959 -1 194 0.0 0.0 0.00 0.00 0.00 87 1013.5
20260507094455 -1 194 0.0 0.0 0.00 0.00 0.00 87 1013.3
20260507093953 -1 194 0.0 0.0 0.00 0.00 0.00 87 1013.5
20260507093450 -1 194 0.0 0.0 0.00 0.00 0.00 87 1013.5
20260507092949 -1 194 0.0 0.0 0.00 0.00 0.00 87 1013.6
20260507092445 -1 194 0.0 0.0 0.00 0.00 0.00 87 1013.6
20260507091941 -1 194 0.0 0.0 0.00 0.00 0.00 87 1013.7
20260507091438 -1 194 0.0 0.0 0.00 0.00 0.00 87 1013.7
20260507090934 -1 194 0.0 0.0 0.00 0.00 0.00 87 1013.6
20260507090430 -1 190 0.0 0.0 0.00 0.00 0.00 84 1013.6
20260507085926 -1 182 0.0 0.0 0.00 0.00 0.00 83 1013.5
20260507085424 -1 192 0.0 0.0 0.00 0.00 0.00 81 1013.6
20260507084915 0 192 0.0 1.6 0.00 0.00 0.00 81 1013.7
20260507084412 0 197 0.0 0.0 0.00 0.00 0.00 78 1013.8
20260507083909 0 170 0.0 1.6 0.00 0.00 0.00 76 1013.7
20260507083405 0 208 1.6 1.6 0.00 0.00 0.00 75 1013.7
20260507082902 0 195 0.0 0.0 0.00 0.00 0.00 73 1013.8
20260507082357 0 181 1.6 1.6 0.00 0.00 0.00 74 1013.7
20260507081855 0 181 1.6 1.6 0.00 0.00 0.00 74 1013.6
20260507081351 0 230 0.0 1.6 0.00 0.00 0.00 77 1013.7
20260507080848 0 193 0.0 1.6 0.00 0.00 0.00 79 1013.6
20260507080344 -1 199 0.0 0.0 0.00 0.00 0.00 81 1013.5
20260507075839 0 191 0.0 0.0 0.00 0.00 0.00 81 1013.6
20260507075336 0 185 0.0 0.0 0.00 0.00 0.00 81 1013.7
20260507074832 0 192 1.6 3.2 0.00 0.00 0.00 82 1013.4
20260507074330 0 187 0.0 0.0 0.00 0.00 0.00 80 1013.8
20260507073827 0 194 0.0 0.0 0.00 0.00 0.00 80 1013.7
20260507073323 0 173 0.0 0.0 0.00 0.00 0.00 80 1013.8
20260507072821 0 199 0.0 0.0 0.00 0.00 0.00 80 1013.7
20260507072318 -17 0.0 0.0 0.00 0.00 0.00 1013.8
20260507071815 -17 0.0 0.0 0.00 0.00 0.00 1013.8
20260507071312 -17 0.0 0.0 0.00 0.00 0.00 1013.9
20260507070809 -17 0.0 0.0 0.00 0.00 0.00 1014.0
20260507070306 -17 0.0 0.0 0.00 0.00 0.00 1014.0
20260507065802 -17 0.0 0.0 0.00 0.00 0.00 1014.0
20260507065259 -17 0.0 0.0 0.00 0.00 0.00 1013.9
20260507064756 -17 0.0 0.0 0.00 0.00 0.00 1014.3
20260507064255 -17 0.0 0.0 0.00 0.00 0.00 1014.1
20260507063753 -17 0.0 0.0 0.00 0.00 0.00 1014.2
20260507063249 -17 0.0 0.0 0.00 0.00 0.00 1014.2
20260507062746 -1 188 0.0 0.0 0.00 0.00 0.00 88 1014.2
20260507062243 -1 188 0.0 0.0 0.00 0.00 0.00 88 1014.3
20260507061741 -1 188 0.0 0.0 0.00 0.00 0.00 88 1014.4
20260507061239 -1 188 0.0 0.0 0.00 0.00 0.00 88 1014.3
20260507060737 -1 188 0.0 0.0 0.00 0.00 0.00 88 1014.5
20260507060233 -1 188 0.0 0.0 0.00 0.00 0.00 88 1014.5
20260507055729 -1 188 0.0 0.0 0.00 0.00 0.00 88 1014.5
20260507055225 -1 188 0.0 0.0 0.00 0.00 0.00 88 1014.5
20260507054721 -1 188 0.0 0.0 0.00 0.00 0.00 88 1014.5
20260507054218 -1 188 0.0 0.0 0.00 0.00 0.00 88 1014.5
20260507053716 -1 188 0.0 0.0 0.00 0.00 0.00 88 1014.7
20260507053213 -1 188 0.0 0.0 0.00 0.00 0.00 88 1014.7
20260507052712 -1 187 0.0 0.0 0.00 0.00 0.00 86 1015.0
20260507052208 -1 187 0.0 0.0 0.00 0.00 0.00 86 1015.0
20260507051706 -1 187 0.0 0.0 0.00 0.00 0.00 86 1015.0
20260507051203 -1 187 0.0 0.0 0.00 0.00 0.00 86 1015.1
20260507050659 0 202 0.0 0.0 0.00 0.00 0.00 82 1015.1
20260507050156 0 202 0.0 0.0 0.00 0.00 0.00 82 1015.3
20260507045653 0 202 0.0 0.0 0.00 0.00 0.00 82 1015.2
20260507045149 0 202 0.0 0.0 0.00 0.00 0.00 82 1015.3
20260507044646 0 202 0.0 0.0 0.00 0.00 0.00 82 1015.3
20260507044143 0 202 0.0 0.0 0.00 0.00 0.00 82 1015.4
20260507043639 0 202 0.0 0.0 0.00 0.00 0.00 78 1015.4
20260507043136 0 202 0.0 0.0 0.00 0.00 0.00 78 1015.3
20260507042632 0 202 0.0 0.0 0.00 0.00 0.00 78 1015.4
20260507042127 0 202 0.0 0.0 0.00 0.00 0.00 78 1015.4
20260507041625 -17 0.0 0.0 0.00 0.00 0.00 1015.4
20260507041121 -17 0.0 0.0 0.00 0.00 0.00 1015.4
20260507040619 -17 0.0 0.0 0.00 0.00 0.00 1015.6
20260507040115 -17 0.0 0.0 0.00 0.00 0.00 1015.6
20260507035611 -17 0.0 0.0 0.00 0.00 0.00 1015.5
20260507035108 -17 0.0 0.0 0.00 0.00 0.00 1015.4
20260507034604 -17 0.0 0.0 0.00 0.00 0.00 1015.6
20260507034102 -17 0.0 0.0 0.00 0.00 0.00 1015.7
20260507033600 -17 0.0 0.0 0.00 0.00 0.00 1015.6
20260507033057 -17 0.0 0.0 0.00 0.00 0.00 1015.5
20260507032554 -17 0.0 0.0 0.00 0.00 0.00 1015.8
20260507032050 -17 0.0 0.0 0.00 0.00 0.00 1015.7
20260507031546 -17 0.0 0.0 0.00 0.00 0.00 1015.8
20260507031044 -17 0.0 0.0 0.00 0.00 0.00 1015.9
20260507030540 -17 0.0 0.0 0.00 0.00 0.00 1015.8
20260507030038 -17 0.0 0.0 0.00 0.00 0.00 1015.8
20260507025535 -17 0.0 0.0 0.00 0.00 0.00 1016.0
20260507025032 -17 0.0 0.0 0.00 0.00 0.00 1015.8
20260507024530 -17 0.0 0.0 0.00 0.00 0.00 1015.8
20260507024026 -17 0.0 0.0 0.00 0.00 0.00 1016.1
20260507023522 -17 0.0 0.0 0.00 0.00 0.00 1016.2
20260507023020 -17 0.0 0.0 0.00 0.00 0.00 1015.9
20260507022517 4 304 1.6 1.6 0.00 0.00 0.00 56 1015.8
20260507022012 4 304 1.6 1.6 0.00 0.00 0.00 56 1016.0
20260507021508 4 304 1.6 1.6 0.00 0.00 0.00 56 1015.9
20260507020959 4 304 1.6 1.6 0.00 0.00 0.00 56 1015.9
20260507020456 4 304 1.6 1.6 0.00 0.00 0.00 56 1015.9
20260507015953 4 304 1.6 1.6 0.00 0.00 0.00 56 1015.9
20260507015452 4 304 1.6 1.6 0.00 0.00 0.00 56 1015.9
20260507014948 4 304 1.6 1.6 0.00 0.00 0.00 56 1015.6
20260507014445 4 304 1.6 1.6 0.00 0.00 0.00 56 1015.7
20260507013941 4 304 1.6 1.6 0.00 0.00 0.00 56 1015.8
20260507013438 4 304 1.6 1.6 0.00 0.00 0.00 56 1015.7
20260507012935 4 304 1.6 1.6 0.00 0.00 0.00 56 1015.7
20260507012432 5 321 3.2 3.2 0.00 0.00 0.00 56 1015.5
20260507011928 5 321 3.2 3.2 0.00 0.00 0.00 56 1015.7
20260507011425 5 330 3.2 4.8 0.00 0.00 0.00 56 1015.7
20260507010920 5 313 3.2 4.8 0.00 0.00 0.00 55 1015.7
20260507010415 5 257 0.0 0.0 0.00 0.00 0.00 56 1015.5
20260507005913 5 267 0.0 1.6 0.00 0.00 0.00 55 1015.4
20260507005409 5 291 4.8 4.8 0.00 0.00 0.00 55 1015.8
20260507004906 5 282 1.6 1.6 0.00 0.00 0.00 56 1015.7
20260507004403 5 282 1.6 1.6 0.00 0.00 0.00 56 1015.7
20260507003900 5 294 3.2 6.4 0.00 0.00 0.00 53 1015.6
20260507003355 5 297 6.4 6.4 0.00 0.00 0.00 54 1015.7
20260507002851 5 297 6.4 6.4 0.00 0.00 0.00 54 1015.6
20260507002347 5 308 6.4 9.7 0.00 0.00 0.00 53 1015.7
20260507001844 5 270 4.8 4.8 0.00 0.00 0.00 54 1015.5
20260507001341 5 270 4.8 4.8 0.00 0.00 0.00 54 1015.7
20260507000838 5 270 4.8 4.8 0.00 0.00 0.00 54 1016.0
20260507000335 5 270 4.8 4.8 0.00 0.00 0.00 54 1016.0
20260506235830 5 270 4.8 4.8 0.00 0.00 0.00 54 1016.0
20260506235327 5 270 4.8 6.4 0.00 0.00 0.00 54 1016.0
20260506234823 -17 0.0 0.0 0.00 0.00 0.00 1016.0
20260506234321 -17 0.0 0.0 0.00 0.00 0.00 1016.2
20260506233818 -17 0.0 0.0 0.00 0.00 0.00 1016.3
20260506233313 -17 0.0 0.0 0.00 0.00 0.00 1016.2
20260506232810 -17 0.0 0.0 0.00 0.00 0.00 1016.3
20260506232306 -17 0.0 0.0 0.00 0.00 0.00 1016.1
20260506231802 -17 0.0 0.0 0.00 0.00 0.00 1016.3
20260506231300 5 308 6.4 6.4 0.00 0.00 0.00 53 1016.3
20260506230757 5 308 6.4 6.4 0.00 0.00 0.00 53 1016.4
20260506230249 5 308 6.4 6.4 0.00 0.00 0.00 53 1016.3
20260506225746 5 308 6.4 6.4 0.00 0.00 0.00 53 1016.3
20260506225243 5 308 6.4 6.4 0.00 0.00 0.00 53 1016.3
20260506224739 5 308 6.4 6.4 0.00 0.00 0.00 53 1016.3
20260506224237 5 308 6.4 6.4 0.00 0.00 0.00 53 1016.4
20260506223732 5 308 6.4 6.4 0.00 0.00 0.00 53 1016.3
20260506223228 5 308 6.4 6.4 0.00 0.00 0.00 53 1016.5
20260506222725 5 308 6.4 6.4 0.00 0.00 0.00 53 1016.5
20260506222220 5 308 6.4 6.4 0.00 0.00 0.00 53 1016.5
20260506221718 5 308 6.4 6.4 0.00 0.00 0.00 53 1016.6
20260506221216 5 293 6.4 11.3 0.00 0.00 0.00 55 1016.6
20260506220708 5 258 4.8 9.7 0.00 0.00 0.00 54 1016.6
20260506220202 5 298 8.0 11.3 0.00 0.00 0.00 52 1016.5
20260506215659 5 298 8.0 9.7 0.00 0.00 0.00 54 1016.7
20260506215155 5 288 4.8 6.4 0.00 0.00 0.00 53 1016.7
20260506214652 5 247 6.4 9.7 0.00 0.00 0.00 52 1016.8
20260506214149 5 267 8.0 9.7 0.00 0.00 0.00 53 1016.7
20260506213648 5 267 8.0 9.7 0.00 0.00 0.00 53 1016.9
20260506213144 5 265 6.4 11.3 0.00 0.00 0.00 55 1016.9
20260506212642 5 280 4.8 11.3 0.00 0.00 0.00 55 1016.8
20260506212136 5 318 4.8 11.3 0.00 0.00 0.00 55 1016.8
20260506211632 5 273 12.9 16.1 0.00 0.00 0.00 53 1017.0
20260506211129 5 254 8.0 12.9 0.00 0.00 0.00 54 1017.0
20260506210627 5 297 6.4 6.4 0.00 0.00 0.00 55 1017.1
20260506210123 5 305 9.7 11.3 0.00 0.00 0.00 54 1017.4
20260506205620 5 289 11.3 17.7 0.00 0.00 0.00 54 1017.4
20260506205114 5 267 8.0 17.7 0.00 0.00 0.00 54 1017.4
20260506204613 5 311 6.4 12.9 0.00 0.00 0.00 56 1017.2
20260506204109 5 324 9.7 14.5 0.00 0.00 0.00 55 1017.1
20260506203608 4 290 6.4 12.9 0.00 0.00 0.00 54 1017.5
20260506203104 5 277 14.5 16.1 0.00 0.00 0.00 54 1017.5
20260506202602 5 310 9.7 12.9 0.00 0.00 0.00 54 1017.2
20260506202058 5 259 9.7 11.3 0.00 0.00 0.00 55 1017.4
20260506201555 5 298 9.7 14.5 0.00 0.00 0.00 55 1017.4
20260506201052 5 267 4.8 11.3 0.00 0.00 0.00 57 1017.2
20260506200548 5 277 3.2 6.4 0.00 0.00 0.00 58 1017.2
20260506200045 5 280 11.3 14.5 0.00 0.00 0.00 55 1017.4
20260506195542 5 271 6.4 16.1 0.00 0.00 0.00 54 1017.2
20260506195038 5 267 6.4 16.1 0.00 0.00 0.00 55 1017.5
20260506194536 5 249 6.4 20.9 0.00 0.00 0.00 54 1017.5
20260506194032 5 14 8.0 12.9 0.00 0.00 0.00 55 1017.1
20260506193530 5 258 6.4 14.5 0.00 0.00 0.00 55 1017.5
20260506193027 5 259 8.0 16.1 0.00 0.00 0.00 54 1017.2
20260506192523 5 257 11.3 16.1 0.00 0.00 0.00 54 1017.4
20260506192019 5 283 9.7 14.5 0.00 0.00 0.00 53 1017.2
20260506191516 5 279 9.7 12.9 0.00 0.00 0.00 54 1017.5
20260506191012 5 301 9.7 17.7 0.00 0.00 0.00 53 1017.5
20260506190510 5 264 9.7 16.1 0.00 0.00 0.00 52 1017.0
20260506190007 5 288 9.7 12.9 0.00 0.00 0.00 53 1017.5
20260506185504 5 239 4.8 12.9 0.00 0.00 0.00 53 1017.2
20260506185000 5 254 6.4 11.3 0.00 0.00 0.00 54 1017.1
20260506184457 5 286 12.9 14.5 0.00 0.00 0.00 54 1017.4
20260506183954 5 329 8.0 11.3 0.00 0.00 0.00 54 1017.5
20260506183450 5 288 9.7 12.9 0.00 0.00 0.00 52 1017.5
20260506182947 5 341 9.7 20.9 0.00 0.00 0.00 55 1017.5
20260506182444 5 305 11.3 17.7 0.00 0.00 0.00 53 1017.4
20260506181941 5 334 12.9 16.1 0.00 0.00 0.00 52 1017.2
20260506181439 5 257 9.7 16.1 0.00 0.00 0.00 53 1017.5
20260506180936 5 313 9.7 14.5 0.00 0.00 0.00 52 1017.5
20260506180432 5 264 9.7 11.3 0.00 0.00 0.00 55 1017.6
20260506175929 5 309 4.8 14.5 0.00 0.00 0.00 59 1017.5
20260506175426 5 324 9.7 20.9 0.00 0.00 0.00 54 1017.5
20260506174923 5 282 11.3 17.7 0.00 0.00 0.00 54 1017.7
20260506174421 5 251 14.5 22.5 0.00 0.00 0.00 52 1017.6
20260506173917 5 324 3.2 14.5 0.00 0.00 0.00 53 1017.7
20260506173414 5 315 9.7 16.1 0.00 0.00 0.00 53 1017.8
20260506172911 5 310 8.0 16.1 0.00 0.00 0.00 55 1017.9
20260506172408 5 247 8.0 14.5 0.00 0.00 0.00 54 1018.0
20260506171905 5 303 9.7 11.3 0.00 0.00 0.00 55 1018.0
20260506171402 4 18 9.7 14.5 0.00 0.00 0.00 56 1018.0
20260506170900 4 337 14.5 17.7 0.00 0.00 0.00 53 1018.0
20260506170355 3 357 11.3 14.5 0.00 0.00 0.00 54 1018.0
20260506165849 4 336 11.3 16.1 0.00 0.00 0.00 54 1017.9
20260506165347 3 326 9.7 16.1 0.00 0.00 0.00 56 1017.8
20260506164843 3 293 12.9 14.5 0.00 0.00 0.00 56 1018.2
20260506164339 4 336 6.4 14.5 0.00 0.00 0.00 58 1018.1
20260506163838 4 0 9.7 12.9 0.00 0.00 0.00 57 1018.1
20260506163332 3 63 6.4 16.1 0.00 0.00 0.00 59 1018.2
20260506162827 3 331 11.3 16.1 0.00 0.00 0.00 57 1018.3
20260506162325 3 305 9.7 12.9 0.00 0.00 0.00 59 1018.2
20260506161817 3 261 9.7 11.3 0.00 0.00 0.00 60 1018.3
20260506161314 2 347 9.7 14.5 0.00 0.00 0.00 60 1018.6
20260506160812 2 260 8.0 12.9 0.00 0.00 0.00 62 1018.5
20260506160308 3 231 14.5 16.1 0.00 0.00 0.00 59 1018.4
20260506155807 2 348 3.2 16.1 0.00 0.00 0.00 62 1018.3
20260506155306 2 332 14.5 22.5 0.00 0.00 0.00 60 1018.4
20260506153416 2 321 8.0 14.5 0.00 0.00 0.00 63 1018.4
20260506152913 2 299 8.0 14.5 0.00 0.00 0.00 63 1018.4
20260506152410 2 281 12.9 20.9 0.00 0.00 0.00 63 1018.3
20260506151909 2 325 9.7 12.9 0.00 0.00 0.00 62 1018.4
20260506151405 2 303 4.8 22.5 0.00 0.00 0.00 64 1018.4
20260506150903 2 271 11.3 24.1 0.00 0.00 0.00 62 1018.2
20260506150359 2 301 8.0 12.9 0.00 0.00 0.00 64 1018.5
20260506145855 2 322 6.4 11.3 0.00 0.00 0.00 65 1018.2
20260506145352 2 14 9.7 20.9 0.00 0.00 0.00 63 1018.3
20260506144849 2 297 8.0 16.1 0.00 0.00 0.00 63 1018.5
20260506144346 2 340 4.8 12.9 0.00 0.00 0.00 65 1018.4
20260506143844 2 342 6.4 12.9 0.00 0.00 0.00 64 1018.3
20260506143341 2 353 8.0 11.3 0.00 0.00 0.00 65 1018.2
20260506142839 2 265 8.0 11.3 0.00 0.00 0.00 64 1018.3
20260506142337 2 340 8.0 12.9 0.00 0.00 0.00 65 1018.2
20260506141835 2 318 9.7 12.9 0.00 0.00 0.00 64 1018.2
20260506141333 2 287 3.2 14.5 0.00 0.00 0.00 65 1018.3
20260506140831 2 15 4.8 14.5 0.00 0.00 0.00 65 1018.3
20260506140327 2 227 1.6 12.9 0.00 0.00 0.00 66 1018.2
20260506135824 1 276 8.0 14.5 0.00 0.00 0.00 65 1018.2
20260506135321 2 349 9.7 12.9 0.00 0.00 0.00 65 1018.1
20260506134817 1 309 3.2 14.5 0.00 0.00 0.00 66 1017.9
20260506134314 1 347 6.4 11.3 0.00 0.00 0.00 66 1018.1
20260506133811 1 301 11.3 16.1 0.00 0.00 0.00 67 1018.0
20260506133308 1 314 9.7 17.7 0.00 0.00 0.00 66 1018.0
20260506132804 1 340 9.7 12.9 0.00 0.00 0.00 67 1018.1
20260506132302 2 354 9.7 17.7 0.00 0.00 0.00 67 1017.8
20260506131800 1 294 3.2 11.3 0.00 0.00 0.00 68 1017.9
20260506131255 1 36 8.0 11.3 0.00 0.00 0.00 66 1018.0
20260506130752 1 293 3.2 12.9 0.00 0.00 0.00 66 1017.9
20260506130249 1 353 8.0 11.3 0.00 0.00 0.00 67 1017.9
20260506125747 1 349 3.2 12.9 0.00 0.00 0.00 67 1017.8
20260506125245 1 292 8.0 14.5 0.00 0.00 0.00 67 1017.8
20260506124743 1 346 8.0 11.3 0.00 0.00 0.00 68 1017.6
20260506124240 1 287 6.4 11.3 0.00 0.00 0.00 69 1017.7
20260506123737 1 355 4.8 9.7 0.00 0.00 0.00 69 1017.6
20260506123237 1 336 3.2 11.3 0.00 0.00 0.00 68 1017.4
20260506122732 1 326 8.0 11.3 0.00 0.00 0.00 68 1017.5
20260506122230 1 338 8.0 11.3 0.00 0.00 0.00 69 1017.2
20260506121728 1 283 3.2 12.9 0.00 0.00 0.00 69 1017.5
20260506121225 1 296 3.2 9.7 0.00 0.00 0.00 68 1017.1
20260506120722 1 300 4.8 12.9 0.00 0.00 0.00 69 1017.1
20260506120219 1 343 3.2 6.4 0.00 0.00 0.00 69 1016.9
20260506115717 1 346 6.4 11.3 0.00 0.00 0.00 70 1017.0
20260506115215 1 316 3.2 4.8 0.00 0.00 0.00 71 1017.0
20260506114712 1 358 3.2 6.4 0.00 0.00 0.00 69 1016.9
20260506114210 1 278 6.4 11.3 0.00 0.00 0.00 70 1017.0
20260506113708 1 326 4.8 11.3 0.00 0.00 0.00 71 1016.8
20260506113205 1 301 6.4 11.3 0.00 0.00 0.00 70 1016.8
20260506112701 1 357 4.8 12.9 0.00 0.00 0.00 70 1016.6
20260506112159 1 283 8.0 9.7 0.00 0.00 0.00 71 1016.6
20260506111656 1 292 4.8 9.7 0.00 0.00 0.00 72 1016.6
20260506111154 1 324 3.2 9.7 0.00 0.00 0.00 71 1016.5